Regional Weather Roundup
Issued by NWS

Home | Current Version | Previous Version | Graphics & Text | Print | Product List | Glossary On
Versions: 1 2 3 4 5 6 7 8 9 10 11 12 13 14 15 16 17 18 19 20 21 22 23 24 25 26 27 28 29 30 31 32 33 34 35 36 37 38 39 40 41 42 43 44 45 46 47 48 49 50
000
ASUS43 KBIS 190910
RWRND

NORTH DAKOTA REGIONAL WEATHER ROUNDUP
NATIONAL WEATHER SERVICE BISMARCK ND
400 AM CDT TUE SEP 19 2017

NOTE: "FAIR" INDICATES FEW OR NO CLOUDS BELOW 12,000 FEET WITH NO
SIGNIFICANT WEATHER AND/OR OBSTRUCTIONS TO VISIBILITY.


NDZ001>003-009>011-017-191000-
NORTHWEST NORTH DAKOTA

CITY           SKY/WX    TMP DP  RH WIND       PRES   REMARKS
WILLISTON      CLOUDY    62  43  49 E12       29.50F
MINOT          CLEAR     50  48  93 E8        29.65F
MINOT AFB      CLEAR     49  47  95 SE14      29.63F
$$

NDZ018>021-031>035-040>046-191000-
SOUTHWEST NORTH DAKOTA

CITY           SKY/WX    TMP DP  RH WIND       PRES   REMARKS
BISMARCK       CLOUDY    55  50  83 E9        29.65F
DICKINSON      MOCLDY    59  49  69 E15G25    29.51F
GARRISON         N/A     57  49  74 E16G24    29.62F
HETTINGER ARPT MOCLDY    60  49  66 SE14      29.55F
$$

NDZ004>008-012>016-024-026-027-054-191000-
NORTHEAST NORTH DAKOTA

CITY           SKY/WX    TMP DP  RH WIND       PRES   REMARKS
GRAND FORKS    CLOUDY    59  59 100 SE12      29.79F FOG
GRND FRKS AFB  CLOUDY    59  59 100 SE7       29.80F FOG
DEVILS LAKE    CLOUDY    58  56  93 SE12      29.77S
$$

NDZ022-023-025-028>030-036>039-047>053-191000-
SOUTHEAST NORTH DAKOTA

CITY           SKY/WX    TMP DP  RH WIND       PRES   REMARKS
FARGO          CLOUDY    60  60 100 SE10      29.80F FOG
JAMESTOWN      FOG       55  55 100 SE9       29.75F VSB 1/4
$$





USA.gov is the U.S. government's official web portal to all federal, state and local government web resources and services.